TimeEDT,TemperatureF,Dew PointF,Humidity,Sea Level PressureIn,VisibilityMPH,Wind Direction,Wind SpeedMPH,Gust SpeedMPH,PrecipitationIn,Events,Conditions,WindDirDegrees,DateUTC
12:15 AM,37.4,32.0,81,29.94,10.0,Calm,Calm,-,N/A,,Clear,0,2013-05-12 04:15:00
12:35 AM,37.4,32.0,81,29.94,10.0,SW,3.5,-,N/A,,Clear,230,2013-05-12 04:35:00
12:55 AM,37.4,32.0,81,29.94,10.0,SW,4.6,-,N/A,,Clear,230,2013-05-12 04:55:00
1:15 AM,37.4,32.0,81,29.94,10.0,SW,3.5,-,N/A,,Clear,220,2013-05-12 05:15:00
1:35 AM,37.4,32.0,81,29.95,10.0,WSW,6.9,-,N/A,,Clear,250,2013-05-12 05:35:00
1:55 AM,37.4,32.0,81,29.94,10.0,WSW,4.6,-,N/A,,Clear,250,2013-05-12 05:55:00
2:15 AM,39.2,32.0,75,29.94,10.0,WSW,5.8,-,N/A,,Clear,250,2013-05-12 06:15:00
2:35 AM,39.2,32.0,75,29.94,10.0,WSW,4.6,-,N/A,,Clear,250,2013-05-12 06:35:00
2:55 AM,37.4,32.0,81,29.93,10.0,WSW,5.8,-,N/A,,Clear,250,2013-05-12 06:55:00
3:15 AM,37.4,32.0,81,29.93,10.0,WSW,6.9,-,N/A,,Clear,240,2013-05-12 07:15:00
3:35 AM,37.4,32.0,81,29.93,10.0,WSW,8.1,-,N/A,,Clear,250,2013-05-12 07:35:00
3:55 AM,37.4,32.0,81,29.93,10.0,WSW,6.9,-,N/A,,Clear,240,2013-05-12 07:55:00
4:15 AM,37.4,32.0,81,29.93,10.0,WSW,4.6,-,N/A,,Clear,250,2013-05-12 08:15:00
4:35 AM,37.4,32.0,81,29.93,10.0,West,5.8,-,N/A,,Clear,260,2013-05-12 08:35:00
4:55 AM,37.4,32.0,81,29.92,10.0,WSW,8.1,-,N/A,,Clear,240,2013-05-12 08:55:00
5:35 AM,37.4,32.0,81,29.92,10.0,WSW,8.1,-,N/A,,Clear,250,2013-05-12 09:35:00
5:55 AM,37.4,32.0,81,29.92,10.0,West,8.1,-,N/A,,Clear,260,2013-05-12 09:55:00
6:15 AM,37.4,32.0,81,29.93,10.0,West,9.2,-,N/A,,Clear,260,2013-05-12 10:15:00
6:35 AM,37.4,32.0,81,29.93,10.0,WSW,6.9,-,N/A,,Scattered Clouds,240,2013-05-12 10:35:00
6:55 AM,37.4,32.0,81,29.94,10.0,West,9.2,-,N/A,,Clear,260,2013-05-12 10:55:00
7:15 AM,39.2,32.0,75,29.94,10.0,West,10.4,16.1,N/A,,Scattered Clouds,270,2013-05-12 11:15:00
7:35 AM,39.2,32.0,75,29.95,10.0,West,10.4,-,N/A,,Mostly Cloudy,270,2013-05-12 11:35:00
7:55 AM,39.2,32.0,75,29.95,10.0,West,11.5,17.3,N/A,,Mostly Cloudy,270,2013-05-12 11:55:00
8:15 AM,41.0,32.0,70,29.95,10.0,West,11.5,17.3,N/A,,Mostly Cloudy,280,2013-05-12 12:15:00
8:35 AM,41.0,30.2,65,29.95,10.0,West,12.7,19.6,N/A,,Scattered Clouds,280,2013-05-12 12:35:00
8:55 AM,41.0,30.2,65,29.96,10.0,WNW,12.7,19.6,N/A,,Mostly Cloudy,290,2013-05-12 12:55:00
9:15 AM,42.8,30.2,61,29.97,10.0,WNW,13.8,24.2,N/A,,Mostly Cloudy,300,2013-05-12 13:15:00
9:35 AM,44.6,30.2,57,29.97,10.0,WNW,15.0,21.9,N/A,,Mostly Cloudy,300,2013-05-12 13:35:00
9:55 AM,42.8,30.2,61,29.97,10.0,West,13.8,23.0,N/A,,Mostly Cloudy,270,2013-05-12 13:55:00
10:15 AM,42.8,28.4,57,29.98,10.0,West,13.8,20.7,N/A,,Overcast,280,2013-05-12 14:15:00
10:35 AM,42.8,28.4,57,29.98,10.0,WNW,12.7,21.9,N/A,,Overcast,290,2013-05-12 14:35:00
10:55 AM,44.6,28.4,53,29.98,10.0,WNW,12.7,21.9,N/A,,Overcast,300,2013-05-12 14:55:00
11:15 AM,44.6,28.4,53,29.99,10.0,WNW,9.2,24.2,N/A,,Overcast,290,2013-05-12 15:15:00
11:35 AM,44.6,28.4,53,29.99,10.0,WNW,13.8,23.0,N/A,,Overcast,290,2013-05-12 15:35:00
11:55 AM,44.6,28.4,53,30.00,10.0,West,12.7,23.0,N/A,,Overcast,280,2013-05-12 15:55:00
12:15 PM,44.6,28.4,53,30.00,10.0,West,12.7,18.4,N/A,,Overcast,280,2013-05-12 16:15:00
12:35 PM,46.4,28.4,50,30.00,10.0,West,13.8,21.9,N/A,,Overcast,270,2013-05-12 16:35:00
12:55 PM,46.4,28.4,50,30.00,10.0,WNW,8.1,19.6,N/A,,Overcast,290,2013-05-12 16:55:00
1:15 PM,46.4,28.4,50,30.00,10.0,West,15.0,19.6,N/A,,Overcast,270,2013-05-12 17:15:00
1:35 PM,48.2,28.4,46,30.00,10.0,West,17.3,23.0,N/A,,Overcast,280,2013-05-12 17:35:00
2:15 PM,48.2,28.4,46,30.00,10.0,West,18.4,24.2,N/A,,Overcast,260,2013-05-12 18:15:00
2:35 PM,48.2,26.6,43,30.00,10.0,West,11.5,20.7,N/A,,Overcast,270,2013-05-12 18:35:00
2:55 PM,50.0,26.6,40,30.00,10.0,West,16.1,25.3,N/A,,Overcast,280,2013-05-12 18:55:00
3:15 PM,48.2,26.6,43,30.01,10.0,West,15.0,25.3,N/A,,Overcast,280,2013-05-12 19:15:00
3:35 PM,50.0,26.6,40,30.01,10.0,West,19.6,29.9,N/A,,Overcast,270,2013-05-12 19:35:00
3:55 PM,50.0,28.4,43,30.01,10.0,West,15.0,27.6,N/A,,Overcast,270,2013-05-12 19:55:00
4:15 PM,48.2,26.6,43,30.01,10.0,WNW,13.8,23.0,N/A,,Overcast,290,2013-05-12 20:15:00
4:35 PM,48.2,26.6,43,30.02,10.0,WNW,15.0,21.9,N/A,,Overcast,290,2013-05-12 20:35:00
4:55 PM,48.2,26.6,43,30.02,10.0,West,15.0,23.0,N/A,,Overcast,280,2013-05-12 20:55:00
5:15 PM,48.2,26.6,43,30.03,10.0,WNW,12.7,21.9,N/A,,Overcast,300,2013-05-12 21:15:00
5:35 PM,46.4,26.6,46,30.03,10.0,WNW,8.1,24.2,N/A,,Overcast,290,2013-05-12 21:35:00
5:55 PM,46.4,26.6,46,30.03,10.0,WNW,16.1,24.2,N/A,,Overcast,290,2013-05-12 21:55:00
6:15 PM,46.4,26.6,46,30.04,10.0,WNW,11.5,20.7,N/A,,Overcast,300,2013-05-12 22:15:00
6:35 PM,46.4,26.6,46,30.04,10.0,WNW,13.8,25.3,N/A,,Overcast,300,2013-05-12 22:35:00
6:55 PM,46.4,26.6,46,30.05,10.0,West,13.8,20.7,N/A,,Overcast,280,2013-05-12 22:55:00
7:15 PM,44.6,26.6,49,30.05,10.0,West,10.4,20.7,N/A,,Mostly Cloudy,280,2013-05-12 23:15:00
7:35 PM,44.6,26.6,49,30.06,10.0,WNW,8.1,20.7,N/A,,Mostly Cloudy,290,2013-05-12 23:35:00
7:55 PM,44.6,26.6,49,30.06,10.0,WNW,12.7,16.1,N/A,,Mostly Cloudy,290,2013-05-12 23:55:00
8:15 PM,44.6,24.8,46,30.07,10.0,WNW,11.5,20.7,N/A,,Mostly Cloudy,300,2013-05-13 00:15:00
8:35 PM,42.8,23.0,46,30.07,10.0,WNW,10.4,17.3,N/A,,Mostly Cloudy,290,2013-05-13 00:35:00
8:55 PM,42.8,24.8,49,30.07,10.0,NW,6.9,-,N/A,,Scattered Clouds,320,2013-05-13 00:55:00
9:15 PM,41.0,24.8,53,30.08,10.0,NW,6.9,-,N/A,,Scattered Clouds,320,2013-05-13 01:15:00
9:35 PM,41.0,24.8,53,30.09,10.0,NW,4.6,-,N/A,,Scattered Clouds,320,2013-05-13 01:35:00
9:55 PM,41.0,24.8,53,30.10,10.0,NW,4.6,-,N/A,,Clear,310,2013-05-13 01:55:00
10:15 PM,39.2,26.6,61,30.10,10.0,Calm,Calm,-,N/A,,Clear,0,2013-05-13 02:15:00
10:35 PM,37.4,26.6,65,30.11,10.0,Calm,Calm,-,N/A,,Clear,0,2013-05-13 02:35:00
10:55 PM,37.4,26.6,65,30.11,10.0,Calm,Calm,-,N/A,,Clear,0,2013-05-13 02:55:00
11:15 PM,37.4,26.6,65,30.11,10.0,Calm,Calm,-,N/A,,Clear,0,2013-05-13 03:15:00
11:35 PM,35.6,26.6,70,30.11,10.0,Calm,Calm,-,N/A,,Clear,0,2013-05-13 03:35:00
11:55 PM,33.8,26.6,75,30.11,10.0,Calm,Calm,-,N/A,,Clear,0,2013-05-13 03:55:00